Home > Weather > Werl > Past weeks

Flag for Germany Past Weather in Werl, North Rhine-Westphalia, Germany — Yesterday and Last 2 Weeks

Now
57 °F

Passing clouds.


Feels Like: 55 °F
Forecast: 56 / 67 °F
Wind: 9 mph from Southwest

Location: Dortmund / Wickede

Current Time: Jun 29, 2016 at 5:55:26 AM

Latest Report: Jun 29, 2016 at 5:20 AM


Visibility: N/A

Pressure: 29.83 "Hg

Humidity: 88%

Dew Point: 54 °F

Location of WerlLocation

Past Weather in Werl — Graph

°F

Werl Temperature Yesterday

Maximum temperature yesterday: 72 °F (at 5:20 PM)
Minimum temperature yesterday: 54 °F (at 5:20 AM)
Average temperature yesterday: 65 °F

High & Low Weather Summary for the Past Weeks

 TemperatureHumidityPressure
High90 °F (Jun 23, 3:20 PM)94% (Jun 17, 5:20 AM)30.24 "Hg (Jun 17, 5:20 AM)
Low48 °F (Jun 20, 5:20 AM)38% (Jun 23, 3:20 PM)29.47 "Hg (Jun 14, 2:50 PM)
Average63 °F72%29.94 "Hg
* Reported Jun 13 9:20 PM — Jun 28 9:50 PM, Werl, Weather by CustomWeather, © 2016

Note: Actual official high and low records may vary slightly from our data, if they occured in-between our weather recording intervals... More about our weather records

Advertising

Werl Weather History for the Previous 24 Hours

Scroll right to see more
 ConditionsComfort  
Time TempWeatherWind HumidityBarometerVisibility
9:50 PM
Tue, Jun 28
66 °FSunny.5 mph56%29.89 "Hg10 mi
9:20 PM66 °FSunny.6 mph56%29.89 "Hg10 mi
8:50 PM68 °FPassing clouds.5 mph53%29.92 "HgN/A
8:20 PM68 °FSunny.7 mph49%29.92 "Hg10 mi
7:50 PM70 °FPassing clouds.8 mph46%29.92 "HgN/A
7:20 PM70 °FPassing clouds.9 mph46%29.92 "HgN/A
6:50 PM72 °FPassing clouds.7 mph41%29.92 "HgN/A
6:20 PM72 °FPassing clouds.7 mph41%29.95 "HgN/A
5:50 PM72 °FScattered clouds.7 mph41%29.95 "HgN/A
5:20 PM72 °FScattered clouds.6 mph44%29.98 "HgN/A
4:50 PM70 °FScattered clouds.6 mph46%29.98 "HgN/A
4:20 PM70 °FScattered clouds.2 mph40%29.98 "HgN/A
3:50 PM70 °FPassing clouds.6 mph40%30.01 "HgN/A
3:20 PM70 °FSunny.3 mph43%30.01 "Hg10 mi
2:50 PM70 °FSunny.3 mph43%30.01 "Hg10 mi
2:20 PM68 °FScattered clouds.5 mph46%30.01 "HgN/A
1:50 PM68 °FScattered clouds.2 mph46%30.04 "HgN/A
1:20 PM68 °FScattered clouds.7 mph49%30.04 "HgN/A
12:50 PM66 °FScattered clouds.5 mph49%30.07 "HgN/A
12:20 PM64 °FScattered clouds.7 mph52%30.07 "HgN/A
11:50 AM64 °FScattered clouds.5 mph56%30.07 "HgN/A
11:20 AM63 °FScattered clouds.3 mph56%30.07 "HgN/A
10:50 AM64 °FScattered clouds.5 mph56%30.09 "HgN/A
10:20 AM63 °FScattered clouds.6 mph68%30.09 "HgN/A
9:50 AM63 °FScattered clouds.5 mph68%30.09 "HgN/A
9:20 AM61 °FScattered clouds.5 mph72%30.09 "HgN/A
8:50 AM59 °FPassing clouds.5 mph82%30.09 "Hg4 mi
8:20 AM57 °FClear.2 mph88%30.09 "Hg4 mi
7:50 AM55 °FClear.3 mph88%30.09 "Hg4 mi
7:20 AM55 °FClear.3 mph88%30.09 "Hg4 mi
6:50 AM54 °FClear.3 mph94%30.09 "Hg4 mi
6:20 AM55 °FClear.3 mph88%30.09 "Hg4 mi
5:50 AM54 °FClear.5 mph94%30.09 "Hg4 mi
5:20 AM54 °FClear.6 mph94%30.09 "Hg4 mi
Weather by CustomWeather, © 2016

See weather overviewHow to use our weather pages